ICS-EF (ISS DEB) (45265 NORAD) Tracking and Keplerian Element Data

This shows tracking and keplerian element data for the satellite.

Feedback or suggestion? Click here.




ElementValue
Catalog45265
NameICS-EF (ISS DEB)
Epoch Orbit9062
Epoch Day270.15068607
Epoch Year2021
RAAN190.131
Inclination51.64
Eccentricity0.0004095
Argument of Perigee295.1079
Mean Anonmoly64.9486
Mean Motion15.53462585
Decay Rate8.107E-05
L11 45265U 98067RJ 21270.15068607 .00008107 00000-0 13268-3 0 9996
L22 45265 51.6400 190.1310 0004095 295.1079 64.9486 15.53462585 90624

Live tracking and technical data element details for ICS-EF (ISS DEB) (NORAD 45265). ICS-EF (ISS DEB) can be tracked NOW for your location showing map with azimuth and elevation plus other details from your city location.

Track the satellite on the map from your city or location and see movement details for azimuth, elevation, latitude, longitude, range, height, and movement on the map or in text.







IsCatalogInMostPopularTable: catalog: 45265, numindb: 25375
Update: records affected: 1



GetName: 45265 ICS-EF (ISS DEB)

Hit Count: updated at: Tue, 28 Sep 2021 16:59:48 GMT